This is the latest recevied weather packets stored in our database for station/object W1REE. If no packets are shown the sender has not sent any weather packets the latest 10 day(s).
| Time | Temp. | Humidity | Pressure | Rain* | Wind** | Luminosity | Snow |
|---|---|---|---|---|---|---|---|
| 1777796254 | 6.67° C | 47% | 1020.7 hPa | 0 mm | - | 0 W/m² | - |
| 1777795951 | 6.11° C | 46% | 1020.8 hPa | 0 mm | - | 0 W/m² | - |
| 1777795646 | 6.67° C | 47% | 1020.7 hPa | 0 mm | - | 0 W/m² | - |
| 1777795344 | 6.67° C | 44% | 1020.7 hPa | 0 mm | - | 0 W/m² | - |
| 1777795040 | 6.67° C | 42% | 1020.7 hPa | 0 mm | - | 0 W/m² | - |
| 1777794737 | 6.11° C | 46% | 1020.7 hPa | 0 mm | - | 0 W/m² | - |
| 1777794433 | 6.67° C | 41% | 1021.1 hPa | 0 mm | - | 0 W/m² | - |
| 1777794128 | 6.67° C | 46% | 1021.2 hPa | 0 mm | - | 0 W/m² | - |
| 1777793825 | 6.67° C | 41% | 1021.1 hPa | 0 mm | - | 0 W/m² | - |
| 1777793523 | 6.67° C | 41% | 1021.2 hPa | 0 mm | - | 0 W/m² | - |
| 1777793220 | 6.11° C | 45% | 1021.2 hPa | 0 mm | - | 0 W/m² | - |
| 1777792917 | 6.67° C | 41% | 1021.1 hPa | 0 mm | - | 0 W/m² | - |
| 1777792614 | 6.67° C | 44% | 1021.3 hPa | 0 mm | - | 0 W/m² | - |
| 1777792311 | 6.67° C | 45% | 1021.1 hPa | 0 mm | - | 0 W/m² | - |
| 1777792008 | 7.22° C | 41% | 1021.2 hPa | 0 mm | - | 0 W/m² | - |
| 1777791706 | 6.67° C | 41% | 1021.3 hPa | 0 mm | - | 0 W/m² | - |
| 1777791403 | 6.67° C | 42% | 1021.3 hPa | 0 mm | - | 0 W/m² | - |
| 1777791100 | 6.67° C | 41% | 1021.3 hPa | 0 mm | - | 0 W/m² | - |
| 1777790798 | 7.22° C | 41% | 1021.1 hPa | 0 mm | - | 0 W/m² | - |
| 1777790495 | 7.78° C | 39% | 1021.3 hPa | 0 mm | - | 0 W/m² | - |
| 1777790192 | 7.78° C | 37% | 1021.6 hPa | 0 mm | - | 0 W/m² | - |
| 1777789890 | 8.33° C | 36% | 1021.4 hPa | 0 mm | - | 0 W/m² | - |
| 1777789588 | 8.89° C | 35% | 1021.6 hPa | 0 mm | - | 0 W/m² | - |
| 1777789286 | 9.44° C | 34% | 1021.7 hPa | 0 mm | - | 0 W/m² | - |
| 1777788983 | 10° C | 32% | 1021.7 hPa | 0 mm | - | 0 W/m² | - |
* Rain latest hour (hover to see other rain measurements)
** Current wind speed in m/s (hover to see current wind gust speed)